Back to catalog

DELTA 1 DEB

AlivePO
NORAD 21466·DEBRIS·🇺🇸 United States

Launched Jun 12, 1975 from Vandenberg Space Force Base

Loading…

Next Passes (next 24 hours)

TLE

FreshSource: Space-Track

Epoch: Sep 14, 2026, 10:23 UTC

1 21466U 75052FA  26257.43276270  .00000132  00000-0  39628-3 0  9998
2 21466  99.6830  56.3456 0135572 273.4653 109.5724 13.22232455703746

Track DELTA 1 DEB in real time with AllMySat

Download on the App Store